Regional Weather Roundup
Issued by NWS State College, PA

Home | Current Version | Previous Version | Graphics & Text | Print | Product List | Glossary On
Versions: 1 2 3 4 5 6 7 8 9 10 11 12 13 14 15 16 17 18 19 20 21 22 23 24 25 26 27 28 29 30 31 32 33 34 35 36 37 38 39 40 41 42 43 44 45 46 47 48 49 50
000
ASUS41 KCTP 212110
RWRCTP

REGIONAL WEATHER ROUNDUP
NATIONAL WEATHER SERVICE STATE COLLEGE PA
400 PM EST WED FEB 21 2018

Note: "fair" indicates few or no clouds below 12,000 feet with no
significant weather and/or obstructions to visibility.

* = STATION THAT DOES NOT REPORT PRECIPITATION /E.G. RAIN...SNOW...ETC/
    THUNDER OR FOG.

PAZ002>004-007>009-013>016-020>023-029>032-212200-
WESTERN PENNSYLVANIA

CITY           SKY/WX    TMP DP  RH WIND       PRES   REMARKS
ERIE           CLOUDY    35  32  88 NW6       30.49R
MEADVILLE      CLOUDY    36  36 100 N8        30.44R
FRANKLIN*      CLOUDY    40  38  93 NW6       30.42R
NEW CASTLE     CLOUDY    41  39  93 N10       30.43R
BEAVER COUNTY  DRIZZLE   41  39  93 N6        30.41R
BUTLER*        CLOUDY    44  42  93 VRB5      30.40R
PITTSBURGH INT CLOUDY    48  43  82 N13       30.38R
PITTSBURGH     LGT RAIN  49  46  90 NW7G21    30.36R FOG
INDIANA*       CLOUDY    55  55 100 CALM      30.38R FOG
LATROBE        LGT RAIN  57  57 100 N5        30.26F FOG
WASHINGTON CO* LGT RAIN  50  48  93 N16G24    30.38S
$$

PAZ004>006-010>012-017>019-024>028-033>037-041-042-045-046-049>053-212200-
CENTRAL PENNSYLVANIA

CITY           SKY/WX    TMP DP  RH WIND       PRES   REMARKS
BRADFORD       CLOUDY    43  41  93 N13       30.36R
DUBOIS         CLOUDY    51  48  89 NW15G22   30.34R
CLEARFIELD     CLOUDY    57  52  83 N8        30.32R
JOHNSTOWN      LGT RAIN  56  51  84 NW9       30.33R
ALTOONA        CLOUDY    63  52  67 NW20G25   30.30R
STATE COLLEGE  PTSUNNY   64  52  63 W12G23    30.30R
WILLIAMSPORT   CLOUDY    67  55  65 VRB6      30.26R
SELINSGROVE    CLOUDY    74  56  53 NW3       30.22R
FT INDIANTOWN  NOT AVBL
CAPITAL CITY   PTSUNNY   80  60  50 S8        30.20S
HARRISBURG     FAIR      79  58  48 VRB5G17   30.20S
YORK           FAIR      80  60  50 SW8       30.21S
$$

PAZ038>040-043-044-047-048-054-055-060>062-067>071-212200-
EASTERN PENNSYLVANIA

CITY           SKY/WX    TMP DP  RH WIND       PRES   REMARKS
SCRANTON       CLOUDY    73  56  54 W9        30.22R
MOUNT POCONO   CLOUDY    68  56  65 SW8       30.25S
ALLENTOWN      PTSUNNY   80  57  45 SW14      30.21S
QUAKERTOWN*    PTCLDY    77  61  57 S10       30.23R
READING        FAIR      81  59  47 SW14G20   30.20S
LANCASTER      FAIR      81  58  45 SW12      30.21S
COATESVILLE    FAIR      75 -35   1 S10       30.26S
POTTSTOWN      FAIR      77  60  55 S12G18    30.24S
BLUE BELL      FAIR      77  61  57 SW8       30.25S
DOYLESTOWN     FAIR      77  60  55 SW10      30.22S
WILLOW GROVE   NOT AVBL
NORTH PHILA    FAIR      79  61  53 SW17G24   30.25R
PHILADELPHIA   FAIR      77  60  55 SW18G28   30.25R
$$




USA.gov is the U.S. government's official web portal to all federal, state and local government web resources and services.